Deering, AK

10:12 AM AKDT on April 28, 2017 (GMT -0800)
Deering (New)

Weather History for PADE - February, 2013

Change the Weather History Date:

Sunday, February 10, 2013

  Actual Average (PAOT) Record (PAOT)
Temperature  
Mean Temperature 16 °F -  
Max Temperature 24 °F 5 °F 37 °F (1980)
Min Temperature 5 °F -9 °F -50 °F (1964)
Degree Days  
Heating Degree Days 49    
Moisture  
Dew Point 11 °F    
Average Humidity 84    
Maximum Humidity 93    
Minimum Humidity 73    
Precipitation  
Precipitation 0.00 in - - ()
Sea Level Pressure  
Sea Level Pressure 29.02 in    
Wind  
Wind Speed 17 mph (East)    
Max Wind Speed 37 mph    
Max Gust Speed 45 mph    
Visibility 5 miles    
Events Snow    
Averages and records for this station are not official NWS values.
T = Trace of Precipitation, MM = Missing Value Source: NWS Daily Summary

Daily Weather History Graph

Daily Weather History Graph

Search for Another Location

Airport or City:

Trip Planner

Search our weather history database for the weather conditions in past years. The results will help you decide how hot, cold, wet, or windy it might be!

Date:

Astronomy

Feb. 10, 2013 Rise Set
Actual Time 10:13 AM AKST 5:58 PM AKST
Civil Twilight 9:15 AM AKST 6:56 PM AKST
Nautical Twilight 8:14 AM AKST 7:57 PM AKST
Astronomical Twilight 7:15 AM AKST 8:57 PM AKST
Moon 9:31 AM AKST (2/10) 7:53 PM AKST (2/10)
Length of Visible Light 9h 41m
Length of Day
7h 45m
New Moon, 0% of the Moon is Illuminated
Feb 10
New Moon
Feb 17
First Quarter
Feb 25
Full
Mar 4
Last Quarter
Mar 11
New

Hourly Weather History & Observations

Time (AKST) Temp. Windchill Dew Point Humidity Pressure Visibility Wind Dir Wind Speed Gust Speed Precip Events Conditions
12:53 AM 12.0 °F -4.5 °F 8.1 °F 84% 29.00 in 10.0 mi NE 16.1 mph - N/A   Overcast
1:31 AM 10.4 °F -3.3 °F 8.6 °F 92% 28.99 in 10.0 mi NE 10.4 mph - N/A   Overcast
1:43 AM 12.2 °F -3.1 °F 8.6 °F 85% 28.99 in 10.0 mi NE 13.8 mph - N/A   Overcast
1:53 AM 12.0 °F -2.7 °F 9.0 °F 88% 29.00 in 9.0 mi NE 12.7 mph - 0.00 in Snow Light Snow
2:27 AM 14.0 °F -0.2 °F 10.4 °F 86% 28.98 in 2.5 mi NNE 12.7 mph - 0.00 in Snow Light Snow
2:40 AM 15.8 °F 1.4 °F 10.4 °F 79% 28.98 in 3.0 mi NE 13.8 mph - 0.00 in Snow Light Snow
3:53 AM 12.9 °F -0.9 °F 9.0 °F 84% 28.97 in 10.0 mi NNE 11.5 mph - 0.00 in   Scattered Clouds
4:53 AM 10.9 °F -1.8 °F 7.0 °F 84% 28.97 in 10.0 mi NE 9.2 mph - N/A   Partly Cloudy
5:53 AM 12.0 °F 0.5 °F 8.1 °F 84% 28.95 in 10.0 mi ENE 8.1 mph - N/A   Overcast
6:51 AM 14.0 °F -2.5 °F 10.4 °F 86% 28.93 in 10.0 mi ENE 17.3 mph - N/A   Overcast
6:53 AM 15.1 °F -1.1 °F 10.0 °F 80% 28.94 in 10.0 mi ENE 17.3 mph - N/A   Overcast
7:53 AM 16.0 °F 8.8 °F 12.0 °F 84% 28.94 in 10.0 mi NNE 4.6 mph - N/A   Overcast
8:04 AM 15.8 °F 2.7 °F 10.4 °F 79% 28.93 in 10.0 mi NE 11.5 mph - N/A   Overcast
8:53 AM 17.1 °F 2.5 °F 12.9 °F 84% 28.93 in 8.0 mi NE 15.0 mph - 0.00 in Snow Light Snow
9:53 AM 17.1 °F 1.0 °F 14.0 °F 88% 28.93 in 10.0 mi NE 18.4 mph - 0.00 in   Overcast
10:25 AM 17.6 °F 1.7 °F 14.0 °F 86% 28.92 in 6.0 mi NE 18.4 mph - 0.00 in Snow Light Snow
10:53 AM 18.0 °F 3.1 °F 15.1 °F 88% 28.93 in 3.0 mi ENE 16.1 mph - 0.00 in Snow Light Snow
11:12 AM 19.4 °F 3.2 °F 15.8 °F 86% 28.92 in 9.0 mi NE 20.7 mph - 0.00 in   Overcast
11:40 AM 19.4 °F 3.6 °F 15.8 °F 86% 28.93 in 2.5 mi ENE 19.6 mph - 0.00 in Snow Light Snow
11:50 AM 19.4 °F 2.5 °F 15.8 °F 86% 28.93 in 1.0 mi ENE 23.0 mph - 0.00 in Snow Light Snow
11:53 AM 19.0 °F 1.6 °F 16.0 °F 88% 28.93 in 0.8 mi ENE 24.2 mph - 0.00 in Snow Light Snow
12:12 PM 19.4 °F 2.5 °F 15.8 °F 86% 28.92 in 0.8 mi ENE 23.0 mph - 0.00 in Snow Light Snow
12:22 PM 19.4 °F 2.1 °F 15.8 °F 86% 28.92 in 1.0 mi NE 24.2 mph - 0.00 in Snow Light Snow
12:44 PM 19.4 °F 6.6 °F 17.6 °F 93% 28.93 in 3.0 mi NE 12.7 mph - 0.00 in Snow Light Snow
12:53 PM 19.9 °F 9.3 °F 18.0 °F 92% 28.94 in 6.0 mi NNE 9.2 mph - 0.00 in Snow Light Snow
1:22 PM 21.2 °F 10.1 °F 17.6 °F 86% 28.94 in 2.0 mi NNE 10.4 mph - 0.00 in Snow Light Snow
1:36 PM 21.2 °F 10.1 °F 19.4 °F 93% 28.94 in 3.0 mi NE 10.4 mph - 0.00 in Snow Light Snow
1:53 PM 21.9 °F 7.3 °F 18.0 °F 85% 28.94 in 8.0 mi ENE 18.4 mph 23.0 mph 0.00 in Snow Light Snow
2:53 PM 21.9 °F 10.4 °F 19.0 °F 89% 28.97 in 3.0 mi NE 11.5 mph - 0.00 in Snow Light Snow
3:53 PM 23.0 °F - 19.9 °F 88% 28.98 in 10.0 mi Calm Calm - 0.00 in   Overcast
4:33 PM 23.0 °F 13.1 °F 19.4 °F 86% 28.98 in 10.0 mi ENE 9.2 mph - N/A   Overcast
4:53 PM 24.1 °F 12.5 °F 19.9 °F 84% 29.00 in 10.0 mi ESE 12.7 mph - N/A   Overcast
5:53 PM 19.9 °F 1.5 °F 16.0 °F 85% 29.01 in 2.5 mi SE 28.8 mph 36.8 mph 0.00 in   Overcast
6:08 PM 19.4 °F 2.1 °F 12.2 °F 74% 29.03 in 5.0 mi SE 24.2 mph 32.2 mph 0.00 in   Haze
6:53 PM 18.0 °F 0.9 °F 12.9 °F 81% 29.05 in 6.0 mi SSE 21.9 mph - 0.00 in   Haze
7:22 PM 15.8 °F -4.4 °F 10.4 °F 79% 29.05 in 1.8 mi South 29.9 mph 36.8 mph 0.00 in Snow Light Snow
7:53 PM 14.0 °F -7.7 °F 9.0 °F 80% 29.08 in 0.8 mi South 33.4 mph 44.9 mph 0.00 in Snow Light Snow
8:29 PM 12.2 °F -11.0 °F 6.8 °F 79% 29.10 in 0.5 mi SSE 36.8 mph 44.9 mph 0.00 in Snow Snow
8:49 PM 12.2 °F -9.3 °F 6.8 °F 79% 29.13 in 1.2 mi SSE 29.9 mph 40.3 mph 0.00 in Snow Light Snow
8:53 PM 12.0 °F -10.4 °F 7.0 °F 80% 29.13 in 1.2 mi SSE 33.4 mph 42.6 mph 0.00 in Snow Light Snow
9:15 PM 10.4 °F -11.7 °F 6.8 °F 85% 29.15 in 2.5 mi SSE 29.9 mph 39.1 mph 0.00 in Snow Blowing Snow
9:27 PM 10.4 °F -9.9 °F 6.8 °F 85% 29.16 in 2.0 mi SSE 24.2 mph 36.8 mph 0.00 in Snow Blowing Snow
9:37 PM 10.4 °F -11.7 °F 5.0 °F 79% 29.16 in 3.0 mi SSE 29.9 mph 38.0 mph 0.00 in   Haze
9:45 PM 10.4 °F -11.4 °F 5.0 °F 79% 29.17 in 2.5 mi SSE 28.8 mph 38.0 mph 0.00 in Snow Blowing Snow
9:53 PM 10.0 °F -11.1 °F 5.0 °F 80% 29.19 in 2.5 mi SSE 26.5 mph 38.0 mph 0.00 in Snow Blowing Snow
10:03 PM 8.6 °F -14.8 °F 3.2 °F 79% 29.18 in 3.0 mi SSE 32.2 mph 36.8 mph N/A   Haze
10:11 PM 8.6 °F -13.4 °F 3.2 °F 79% 29.19 in 2.0 mi SSE 27.6 mph 39.1 mph N/A Snow Blowing Snow
10:19 PM 8.6 °F -13.1 °F 3.2 °F 79% 29.20 in 1.8 mi SSE 26.5 mph 39.1 mph N/A Snow Blowing Snow
10:24 PM 8.6 °F -11.4 °F 3.2 °F 79% 29.21 in 3.0 mi SSE 21.9 mph 34.5 mph N/A Snow Blowing Snow
10:53 PM 9.0 °F -11.0 °F 1.9 °F 73% 29.24 in 7.0 mi SSE 21.9 mph - N/A   Partly Cloudy
11:53 PM 5.0 °F -18.3 °F -0.9 °F 76% 29.29 in 5.0 mi South 27.6 mph 38.0 mph N/A   Haze